Location: Ash Swamp
(41.5170°N, 74.6157°W)
Time: 16:23:11
(UTC+00:00)

Meteor 2-4 Rocket - Pass Details

Date: 14 July 2020
Orbit: 800 x 908 km, 81.2° (Epoch: 04 August)

Event Time Altitude Azimuth Distance (km) Brightness Sun altitude
Rises 07:04:08 0° 346° (NNW) 3,546 7.6 -21.1°
Reaches altitude 10° 07:06:39 10° 343° (NNW) 2,598 6.8 -20.8°
Maximum altitude 07:12:29 60° 265° (W) 1,027 3.9 -20.3°
Enters shadow 07:14:40 37° 203° (SSW) 1,361 4.2 -20.1°
